Temperature
20 20 20 20 20 20 20 20 20 20 20 20 20 20 20 20 19 19 19 19 19 19 19 19 19 19 18 18 18 18 18 18 19 19 18 18 18 18 17 17 17 17 17
21 20 20 20 20 20 20 20 20 20 20 20 20 20 20 20 20 19 19 19 19 19 19 19 19 19 19 18 18 18 19 19 18 18 18 18 18 18 17 17 17 17 17
21 20 20 20 20 20 20 20 20 20 20 20 20 20 20 20 20 19 19 19 19 19 19 19 19 19 19 19 18 18 18 18 18 18 18 18 18 18 18 17 17 17 17
21 20 20 20 20 20 20 20 20 20 20 20 20 20 20 20 19 19 19 19 19 19 19 19 19 19 19 19 19 18 18 18 18 18 18 18 18 18 18 18 18 17 17
21 20 20 20 20 20 20 20 20 20 19 19 19 19 19 19 19 19 19 19 19 19 19 19 19 19 19 19 19 18 18 18 18 18 18 18 18 18 18 18 18 18 17
21 20 20 20 20 20 20 20 20 19 19 19 19 19 19 19 19 19 19 19 18 18 18 18 18 18 18 18 18 18 18 18 18 18 18 18 18 18 18 18 18 18 18
20 20 20 20 20 19 19 19 19 19 19 19 19 19 19 19 19 19 19 19 18 18 18 18 18 18 18 18 18 18 18 18 18 18 18 18 18 18 18 18 18 18 18
21 20 20 20 19 19 19 19 19 19 19 19 19 19 19 19 19 18 18 18 18 18 18 18 18 18 18 18 18 18 18 18 18 18 18 18 17 17 18 18 18 18 18
20 20 20 20 20 19 19 19 19 19 19 19 19 19 19 19 19 18 18 18 18 18 18 18 18 18 18 18 18 18 18 18 18 18 18 18 18 17 17 18 18 18 18
20 20 20 20 20 20 20 19 19 19 19 19 19 19 19 19 19 19 18 18 18 18 18 18 18 18 18 18 18 18 18 17 18 18 18 18 18 17 17 18 18 18 18
20 20 20 20 20 19 19 19 19 19 19 19 19 19 19 19 18 18 18 18 18 18 18 18 18 18 18 18 18 18 18 18 18 18 18 18 18 18 17 18 18 18 18
19 19 19 19 19 19 19 19 18 18 18 18 18 18 18 18 18 18 18 18 18 18 17 17 18 18 18 18 18 18 18 18 18 18 18 18 18 18 18 18 17 18 18
19 19 19 19 19 19 18 18 18 18 18 18 18 18 18 18 18 17 17 17 17 17 17 17 17 17 17 17 17 17 17 17 18 18 18 18 18 18 18 18 17 17 18
18 19 19 19 19 19 18 18 18 18 18 18 18 17 17 17 17 17 17 17 17 17 17 17 17 17 17 17 17 17 17 17 17 18 18 18 18 18 18 18 17 17 17
18 18 18 18 18 18 18 18 17 17 17 17 17 17 17 17 17 16 16 16 16 16 16 16 16 17 17 17 16 17 17 17 17 17 17 18 18 18 18 18 18 17 17
18 18 18 18 18 18 17 17 17 17 17 17 16 16 16 16 16 16 16 16 16 16 16 16 16 16 16 16 16 16 16 16 17 17 17 17 17 18 18 18 18 18 17
18 18 18 18 18 18 17 17 17 17 17 16 16 16 16 16 16 15 15 15 15 15 16 16 16 16 16 16 16 16 16 16 16 16 17 17 17 17 18 18 18 18 18
18 18 18 18 18 18 17 17 17 17 16 16 16 15 15 15 15 15 15 15 15 15 15 15 15 15 15 15 15 16 16 16 16 16 16 16 17 17 17 17 17 17 18
18 18 18 18 17 17 17 17 16 16 16 15 15 15 15 14 14 14 14 14 14 14 14 14 15 15 15 15 15 15 15 15 15 16 16 16 16 17 17 17 17 17 17
18 18 18 17 17 17 16 16 16 15 15 15 14 14 14 14 14 14 14 14 14 14 14 14 14 14 14 14 14 15 15 15 15 15 16 16 16 16 17 17 17 17 17
17 17 17 17 17 16 16 15 15 15 14 14 13 13 13 13 13 13 13 13 13 13 13 13 13 14 14 14 14 14 15 15 15 15 15 15 16 16 16 16 17 17 17
17 17 17 17 16 16 15 15 14 14 13 13 13 12 12 12 12 12 13 13 13 13 13 13 13 13 13 13 13 13 13 14 15 15 15 15 15 15 15 16 16 16 17
17 17 17 16 16 15 15 14 14 13 13 12 12 12 12 12 12 12 12 12 12 12 13 13 13 13 13 13 13 12 13 13 14 14 14 15 15 15 15 15 16 16 16
18 17 17 16 16 15 15 14 13 13 12 12 11 11 11 11 11 11 11 11 12 12 12 12 12 12 12 12 13 12 12 12 12 13 14 14 14 14 14 15 15 16 16
18 17 17 16 16 15 14 13 13 12 12 11 11 11 11 11 11 11 11 11 11 11 11 12 12 12 12 12 12 12 12 12 12 12 13 14 14 14 14 14 15 15 16
18 17 17 16 16 15 14 13 12 12 11 11 11 11 11 11 11 10 10 10 10 11 11 11 11 11 11 12 12 12 12 12 12 12 12 13 13 14 14 14 15 15 15
Wind_Speed
6 10 17 17 18 18 18 18 18 19 18 18 18 18 18 17 16 15 15 14 13 12 10 9 8 7 7 8 9 9 10 11 11 11 11 11 11 12 13 15 15 15 19
10 13 17 17 17 18 18 18 18 18 18 18 17 17 16 16 15 14 14 13 12 12 11 9 8 8 8 8 9 10 10 10 11 10 11 11 12 13 14 15 15 15 18
13 13 16 17 17 17 17 18 18 18 17 17 16 16 15 15 14 14 13 13 12 11 10 10 9 8 8 8 9 9 9 10 10 10 9 9 10 12 14 15 16 17 17
13 13 14 16 16 16 16 16 17 16 16 15 15 15 14 13 13 13 12 12 11 11 10 9 9 8 8 8 8 9 9 9 9 9 7 7 8 12 13 15 16 16 17
11 13 15 16 16 15 15 15 15 14 14 13 13 12 12 12 11 11 11 10 10 10 10 9 9 8 8 8 8 8 8 8 8 7 5 5 7 12 13 14 15 15 16
10 12 14 15 14 14 13 13 13 12 12 11 11 11 10 10 10 10 9 9 9 9 9 9 9 9 8 8 8 8 7 8 7 6 5 5 7 11 13 14 15 15 15
10 10 13 14 13 12 12 11 11 11 11 10 10 10 10 10 10 9 9 9 8 8 8 8 8 9 9 8 8 8 8 8 6 5 5 6 7 11 13 14 15 15 15
10 9 11 13 12 11 10 10 10 10 9 9 9 9 10 10 10 9 10 10 9 8 8 8 8 9 9 8 8 8 8 7 6 6 6 7 10 12 13 14 15 15 15
9 7 8 9 9 9 9 9 8 8 8 8 9 9 9 9 9 9 9 9 10 10 10 10 10 10 9 9 9 9 9 9 5 5 6 8 11 13 14 15 15 16 16
7 6 5 6 5 5 6 7 7 8 8 8 8 9 9 10 10 10 10 10 10 11 11 11 12 11 11 11 10 10 10 10 7 6 5 7 12 15 16 16 17 17 17
7 5 4 4 3 2 3 4 6 7 7 7 8 9 10 9 8 8 10 10 11 12 12 13 13 13 13 13 13 13 12 9 8 7 7 9 12 16 18 18 19 18 18
7 5 3 2 1 1 2 1 2 3 3 4 6 8 8 7 8 9 9 11 12 12 12 12 14 14 14 12 14 14 11 10 9 9 10 12 13 16 19 21 21 21 20
5 5 4 2 1 1 1 2 2 3 3 3 5 8 8 7 6 7 6 7 8 9 8 9 11 11 12 12 11 12 12 12 11 11 12 14 15 16 19 22 23 23 23
7 6 5 4 4 3 3 4 4 4 4 4 4 5 5 3 3 3 4 5 5 5 6 7 7 9 11 13 13 13 14 13 12 12 13 16 17 18 20 22 24 25 25
7 6 6 6 5 4 5 4 5 5 5 6 6 6 4 2 2 2 2 3 4 4 3 4 5 6 7 8 11 12 12 14 15 14 14 18 19 20 21 22 24 27 27
6 5 5 5 4 5 4 3 3 4 4 5 5 6 5 3 2 1 1 2 2 3 3 3 4 4 5 5 8 10 12 14 14 16 16 17 20 21 22 23 24 27 29
5 4 4 4 4 5 4 3 4 4 5 5 6 7 6 4 2 1 1 2 2 3 3 3 3 3 4 5 8 9 9 12 13 15 16 16 17 20 22 23 24 25 28
5 5 4 4 4 4 3 3 3 4 5 5 7 8 8 6 5 2 1 2 3 3 2 2 3 3 4 5 6 7 8 9 12 14 16 16 16 17 19 22 24 24 26
6 5 4 4 4 3 3 3 3 4 5 6 7 8 8 8 6 3 2 3 4 2 2 3 3 3 4 6 7 7 8 9 11 12 13 15 17 17 17 19 22 24 25
5 4 4 3 2 2 2 3 3 4 4 5 6 7 9 8 8 5 3 3 3 2 3 3 4 4 4 6 7 8 8 9 9 11 13 11 14 17 18 17 17 19 24
5 5 4 3 2 1 1 1 2 2 3 3 4 7 8 9 9 5 3 4 3 2 4 4 3 4 3 3 3 5 6 8 9 9 9 9 11 13 15 16 16 16 16
7 6 5 5 3 2 1 1 1 1 2 3 3 5 7 8 8 6 4 4 3 2 3 3 2 2 2 2 2 3 4 4 3 6 7 8 9 8 10 14 15 16 16
7 7 6 6 5 3 2 1 1 2 3 3 3 4 5 8 7 6 5 4 4 2 2 3 2 2 3 3 3 3 3 3 4 3 5 6 7 7 8 8 12 16 18
7 6 7 6 5 4 2 2 2 1 2 3 3 4 5 6 6 6 5 4 3 2 2 3 2 2 2 3 3 3 5 4 3 4 3 3 5 6 8 10 11 13 18
6 6 6 5 4 3 3 3 3 3 3 3 3 5 5 4 5 5 4 4 3 3 3 3 3 2 2 2 2 2 3 3 5 4 5 4 3 4 6 8 9 9 15
5 5 5 5 4 4 4 4 4 5 5 5 5 4 4 4 4 5 4 3 3 3 3 3 3 3 2 3 3 3 3 3 3 4 5 5 5 4 5 7 8 9 10
Wind_Direction
146 151 147 142 136 131 127 122 118 116 115 114 116 121 129 135 139 144 149 152 154 154 151 145 137 127 122 122 122 121 120 121 123 122 120 118 117 118 118 118 118 120 122
140 149 148 143 137 133 129 126 123 122 122 122 123 126 130 136 141 146 151 155 158 158 155 151 144 136 131 130 129 127 128 130 131 129 126 124 124 122 121 121 122 127 125
137 146 147 144 139 136 132 130 129 128 129 130 132 134 138 143 148 152 157 160 162 162 161 158 153 147 142 138 136 136 136 137 136 130 120 118 126 127 126 127 127 128 128
136 139 146 145 142 140 137 134 133 133 134 136 139 142 146 150 155 159 163 166 168 168 168 166 164 158 153 149 147 147 147 143 137 125 115 123 132 136 134 133 132 132 131
130 135 148 148 146 145 142 140 138 139 140 143 146 150 154 158 163 166 170 173 175 176 176 177 176 172 167 162 159 160 159 152 145 130 122 121 136 145 142 141 140 138 137
124 132 148 148 148 148 148 146 145 146 149 152 156 161 165 170 174 178 181 186 188 188 187 187 188 185 181 176 174 173 173 170 154 138 143 142 150 157 153 151 148 146 144
124 127 144 146 147 149 152 154 155 157 161 166 172 177 181 186 191 194 197 201 202 201 201 201 201 197 194 191 189 188 190 190 158 156 173 174 176 172 166 162 158 155 154
126 120 137 144 147 151 156 161 165 169 175 180 187 192 197 202 207 210 212 214 215 216 216 217 217 213 206 206 204 202 203 206 188 180 181 185 190 187 180 174 169 166 164
117 110 117 136 148 155 162 169 177 183 190 196 203 208 213 218 222 224 225 225 223 225 227 228 226 224 218 218 219 216 215 217 196 183 192 194 200 198 192 186 181 177 175
105 97 98 111 127 148 169 184 192 200 206 212 220 226 229 233 235 237 238 240 239 237 236 235 231 229 226 224 226 228 227 227 214 207 211 209 209 207 203 196 192 188 185
121 101 91 91 103 134 178 209 216 223 227 232 239 241 241 244 252 255 254 251 251 251 249 244 240 237 234 230 229 229 230 227 218 218 220 220 218 215 211 205 200 197 194
138 125 98 96 111 164 204 232 259 262 256 249 259 262 259 249 250 257 263 263 262 262 261 257 252 248 242 234 233 234 232 224 219 225 228 229 228 224 220 213 206 202 200
120 111 89 79 95 132 337 12 356 331 330 305 287 274 265 260 258 262 267 274 277 280 278 274 268 255 243 232 227 230 232 229 228 227 229 232 233 231 226 220 213 207 203
92 83 72 60 55 64 60 39 28 14 5 349 326 301 281 269 260 253 258 267 270 277 280 278 271 262 253 242 234 231 233 233 232 230 229 232 233 233 231 226 219 214 208
91 80 69 67 65 65 62 48 39 19 4 359 357 350 322 273 263 260 258 261 267 271 276 283 282 276 267 256 247 241 238 235 235 234 234 235 234 233 233 231 226 220 215
102 98 86 80 77 79 72 67 53 36 18 14 4 347 334 296 267 256 259 276 281 277 272 271 275 277 273 267 259 251 247 243 240 236 233 235 237 234 232 231 230 225 220
133 127 122 119 103 98 96 83 72 53 44 30 8 357 352 344 313 287 278 284 285 290 285 284 286 282 279 271 264 258 254 247 242 238 233 230 233 235 233 231 232 229 224
160 163 172 143 133 121 108 92 74 54 46 32 20 14 11 8 358 338 313 302 309 307 298 293 285 286 279 277 273 266 258 252 247 241 235 231 229 232 232 232 231 231 229
183 181 180 162 150 129 99 72 58 46 37 23 21 19 13 12 9 357 322 310 321 314 297 293 287 269 280 282 279 272 261 253 249 246 239 234 230 229 229 231 232 231 229
198 198 189 170 152 112 71 43 25 21 15 13 11 8 8 8 9 4 333 317 317 301 294 288 285 277 269 277 284 281 271 260 248 241 240 235 231 229 228 229 229 230 228
203 206 201 186 185 125 65 47 14 339 333 340 348 358 1 4 5 7 351 328 319 289 282 285 281 288 282 275 287 290 279 262 250 243 237 234 233 232 230 227 226 225 225
208 208 206 204 201 195 170 165 210 278 294 293 315 339 353 357 358 3 355 335 321 301 301 296 267 280 282 273 271 298 306 308 284 251 237 233 235 233 233 230 224 223 223
213 209 206 204 205 204 174 108 32 359 340 338 334 331 335 341 345 350 352 347 344 330 305 298 274 253 278 283 239 255 287 298 317 291 243 238 238 236 237 233 228 226 223
218 204 199 196 200 203 179 185 219 251 278 272 284 294 309 324 332 339 346 352 356 352 328 310 310 252 259 285 288 251 249 263 286 309 299 254 242 241 238 236 233 226 222
200 190 187 184 200 208 207 214 227 246 249 273 284 292 304 313 321 330 334 346 347 340 331 328 326 296 251 259 271 282 278 267 249 263 288 301 300 262 244 236 231 226 221
176 168 167 178 211 225 231 233 229 247 260 274 284 291 300 306 307 314 319 327 323 320 317 312 306 301 278 265 264 260 261 270 278 267 274 296 300 289 262 240 229 227 222
Height
1520 1523 1526 1529 1531 1533 1535 1537 1539 1540 1542 1543 1545 1546 1547 1548 1549 1550 1551 1551 1552 1553 1553 1554 1555 1555 1556 1556 1556 1557 1557 1558 1558 1558 1559 1559 1559 1560 1561 1562 1563 1564 1566
1520 1524 1528 1530 1533 1535 1536 1538 1540 1541 1543 1544 1546 1547 1548 1549 1550 1551 1551 1552 1553 1553 1554 1555 1556 1556 1556 1557 1557 1558 1558 1559 1559 1560 1560 1561 1561 1562 1563 1564 1565 1566 1568
1521 1525 1528 1532 1534 1536 1538 1539 1541 1543 1544 1546 1547 1548 1549 1550 1550 1551 1552 1552 1553 1554 1555 1556 1556 1557 1557 1558 1558 1559 1559 1560 1561 1561 1562 1563 1563 1564 1565 1566 1567 1568 1569
1522 1526 1529 1533 1535 1537 1539 1541 1543 1544 1545 1547 1548 1549 1550 1550 1551 1552 1552 1553 1554 1555 1556 1556 1557 1558 1558 1559 1559 1560 1560 1561 1562 1563 1563 1564 1565 1566 1567 1568 1569 1570 1571
1524 1527 1531 1534 1537 1539 1541 1543 1544 1545 1547 1548 1549 1550 1550 1551 1551 1552 1553 1553 1554 1555 1556 1557 1558 1558 1559 1560 1560 1561 1562 1562 1563 1564 1565 1566 1567 1568 1568 1570 1571 1572 1573
1525 1529 1533 1536 1538 1541 1542 1544 1545 1547 1548 1549 1549 1550 1550 1551 1552 1552 1553 1554 1554 1555 1556 1557 1558 1559 1560 1560 1561 1562 1563 1563 1564 1565 1566 1567 1568 1569 1570 1571 1572 1573 1575
1527 1531 1534 1537 1540 1542 1543 1545 1546 1547 1548 1549 1549 1550 1550 1551 1551 1552 1553 1553 1554 1555 1556 1557 1558 1559 1560 1561 1561 1562 1563 1564 1565 1566 1567 1567 1568 1569 1571 1572 1573 1575 1576
1529 1532 1535 1538 1540 1542 1544 1546 1547 1548 1548 1549 1549 1550 1550 1550 1551 1551 1552 1553 1554 1555 1555 1556 1557 1559 1560 1560 1562 1562 1563 1564 1565 1566 1567 1568 1569 1570 1571 1572 1574 1575 1577
1531 1534 1536 1538 1541 1543 1544 1546 1547 1547 1548 1549 1549 1549 1550 1550 1550 1551 1551 1552 1553 1554 1554 1555 1556 1558 1559 1560 1561 1562 1563 1564 1565 1566 1567 1568 1569 1570 1571 1573 1574 1575 1577
1533 1536 1538 1539 1541 1543 1544 1545 1546 1547 1547 1548 1548 1548 1549 1549 1549 1550 1550 1551 1551 1552 1553 1554 1555 1556 1557 1558 1559 1561 1562 1563 1564 1565 1566 1567 1568 1569 1571 1572 1574 1575 1577
1534 1537 1539 1540 1541 1543 1544 1545 1546 1546 1547 1547 1547 1547 1547 1548 1548 1548 1548 1549 1549 1550 1551 1552 1553 1554 1555 1556 1557 1558 1559 1560 1562 1563 1564 1566 1567 1568 1570 1571 1573 1574 1576
1535 1537 1539 1541 1542 1543 1543 1544 1545 1545 1546 1546 1546 1546 1546 1546 1546 1546 1546 1547 1547 1548 1548 1549 1550 1551 1552 1552 1554 1555 1557 1558 1559 1560 1562 1563 1565 1566 1568 1569 1571 1573 1575
1536 1537 1539 1540 1541 1542 1543 1543 1544 1544 1544 1544 1544 1544 1544 1544 1544 1544 1544 1544 1544 1545 1545 1546 1546 1547 1548 1549 1550 1551 1552 1554 1555 1556 1558 1560 1562 1563 1565 1567 1569 1571 1573
1536 1537 1538 1540 1541 1542 1542 1542 1542 1542 1541 1542 1542 1541 1541 1541 1541 1541 1541 1541 1541 1541 1541 1542 1542 1542 1543 1544 1545 1546 1547 1548 1549 1551 1553 1555 1557 1559 1561 1563 1566 1568 1570
1536 1537 1538 1540 1541 1541 1542 1541 1541 1540 1540 1539 1540 1539 1538 1538 1538 1538 1538 1538 1538 1537 1537 1537 1537 1537 1537 1538 1539 1540 1541 1542 1544 1545 1547 1549 1552 1554 1556 1559 1561 1564 1566
1537 1538 1539 1540 1541 1541 1542 1541 1541 1540 1539 1538 1538 1537 1536 1535 1535 1535 1535 1534 1534 1534 1533 1533 1532 1532 1532 1532 1533 1533 1534 1535 1537 1538 1540 1543 1545 1547 1550 1552 1556 1559 1561
1538 1539 1540 1540 1541 1541 1541 1541 1540 1539 1538 1537 1536 1534 1533 1532 1532 1531 1531 1531 1530 1530 1529 1529 1528 1527 1526 1526 1526 1526 1527 1527 1529 1530 1532 1535 1538 1540 1543 1546 1549 1552 1556
1539 1539 1540 1540 1541 1541 1541 1540 1539 1538 1536 1534 1533 1531 1530 1529 1528 1528 1527 1527 1527 1526 1525 1524 1523 1522 1522 1521 1520 1520 1520 1520 1520 1522 1524 1526 1529 1532 1536 1539 1542 1545 1549
1539 1539 1540 1540 1540 1540 1540 1539 1538 1536 1534 1532 1530 1528 1526 1525 1525 1524 1524 1523 1523 1522 1522 1521 1519 1518 1517 1516 1515 1514 1513 1513 1513 1514 1515 1517 1520 1524 1527 1531 1534 1538 1542
1538 1539 1540 1540 1540 1539 1539 1537 1536 1534 1532 1529 1526 1524 1523 1522 1521 1521 1521 1520 1520 1519 1518 1517 1516 1515 1513 1512 1510 1508 1507 1506 1505 1505 1507 1509 1511 1514 1518 1522 1526 1530 1534
1538 1538 1539 1539 1539 1538 1537 1536 1534 1531 1529 1526 1524 1522 1520 1519 1518 1518 1517 1517 1516 1516 1515 1514 1512 1511 1510 1508 1506 1504 1502 1501 1499 1498 1499 1501 1503 1506 1509 1513 1517 1522 1526
1536 1537 1538 1538 1537 1537 1535 1534 1532 1529 1526 1524 1521 1519 1517 1516 1515 1514 1513 1513 1512 1512 1511 1510 1509 1508 1507 1505 1504 1501 1498 1497 1494 1493 1493 1495 1496 1498 1501 1505 1509 1513 1518
1535 1536 1536 1536 1535 1535 1533 1531 1529 1527 1524 1522 1519 1517 1515 1513 1512 1511 1510 1509 1509 1508 1508 1507 1506 1505 1504 1503 1501 1501 1498 1495 1492 1491 1490 1490 1491 1492 1494 1497 1501 1505 1510
1533 1534 1534 1534 1533 1532 1531 1529 1527 1524 1522 1519 1517 1515 1513 1511 1510 1508 1507 1506 1505 1505 1504 1504 1503 1502 1501 1500 1499 1498 1497 1495 1493 1489 1487 1487 1487 1488 1489 1491 1494 1498 1502
1531 1531 1531 1531 1530 1529 1528 1526 1524 1521 1519 1517 1515 1513 1511 1509 1507 1505 1503 1502 1502 1501 1501 1500 1500 1499 1498 1497 1496 1495 1493 1492 1491 1489 1485 1484 1484 1484 1485 1486 1488 1491 1494
1528 1528 1528 1528 1528 1527 1525 1523 1521 1519 1516 1514 1512 1510 1508 1506 1504 1502 1500 1499 1498 1497 1497 1496 1496 1495 1495 1494 1493 1492 1491 1489 1488 1487 1484 1481 1480 1481 1481 1482 1483 1485 1488